owner,sensor,date,latitude,longitude,vertical_datum,sea_water_practical_salinity,qcFlag 
COMPS,ioos:station:USF.COMPS:EGK:1,2008-09-18T01:00:00Z,27.6010,-82.7510,1.0,31.252,1111122 
COMPS,ioos:station:USF.COMPS:EGK:1,2008-09-18T01:06:00Z,27.6010,-82.7510,1.0,32.244,1111122 
COMPS,ioos:station:USF.COMPS:EGK:1,2008-09-18T01:12:00Z,27.6010,-82.7510,1.0,34.064,1111122 
COMPS,ioos:station:USF.COMPS:EGK:1,2008-09-18T01:18:00Z,27.6010,-82.7510,1.0,33.625,1111122 
COMPS,ioos:station:USF.COMPS:EGK:1,2008-09-18T01:24:00Z,27.6010,-82.7510,1.0,33.476,1111122 
COMPS,ioos:station:USF.COMPS:EGK:1,2008-09-18T01:30:00Z,27.6010,-82.7510,1.0,33.571,1111122 
COMPS,ioos:station:USF.COMPS:EGK:1,2008-09-18T01:36:00Z,27.6010,-82.7510,1.0,33.476,1111122 
COMPS,ioos:station:USF.COMPS:EGK:1,2008-09-18T01:42:00Z,27.6010,-82.7510,1.0,33.233,1111122 
COMPS,ioos:station:USF.COMPS:EGK:1,2008-09-18T01:48:00Z,27.6010,-82.7510,1.0,33.449,1111122 
COMPS,ioos:station:USF.COMPS:EGK:1,2008-09-18T01:54:00Z,27.6010,-82.7510,1.0,33.991,1111122 
COMPS,ioos:station:USF.COMPS:EGK:1,2008-09-18T02:00:00Z,27.6010,-82.7510,1.0,33.774,1111122 
COMPS,ioos:station:USF.COMPS:EGK:1,2008-09-18T02:06:00Z,27.6010,-82.7510,1.0,33.808,1111122 
COMPS,ioos:station:USF.COMPS:EGK:1,2008-09-18T02:12:00Z,27.6010,-82.7510,1.0,33.795,1111122 
COMPS,ioos:station:USF.COMPS:EGK:1,2008-09-18T02:18:00Z,27.6010,-82.7510,1.0,33.768,1111122 
COMPS,ioos:station:USF.COMPS:EGK:1,2008-09-18T02:24:00Z,27.6010,-82.7510,1.0,33.707,1111122 
COMPS,ioos:station:USF.COMPS:EGK:1,2008-09-18T02:30:00Z,27.6010,-82.7510,1.0,33.619,1111122 
COMPS,ioos:station:USF.COMPS:EGK:1,2008-09-18T02:36:00Z,27.6010,-82.7510,1.0,33.653,1111122 
COMPS,ioos:station:USF.COMPS:EGK:1,2008-09-18T02:42:00Z,27.6010,-82.7510,1.0,33.619,1111122 
COMPS,ioos:station:USF.COMPS:EGK:1,2008-09-18T02:48:00Z,27.6010,-82.7510,1.0,33.646,1111122 
COMPS,ioos:station:USF.COMPS:EGK:1,2008-09-18T02:54:00Z,27.6010,-82.7510,1.0,33.647,1111122 
COMPS,ioos:station:USF.COMPS:EGK:1,2008-09-18T03:00:00Z,27.6010,-82.7510,1.0,33.322,1111122 
COMPS,ioos:station:USF.COMPS:EGK:1,2008-09-18T03:06:00Z,27.6010,-82.7510,1.0,33.464,1111122 
COMPS,ioos:station:USF.COMPS:EGK:1,2008-09-18T03:12:00Z,27.6010,-82.7510,1.0,33.606,1111122 
COMPS,ioos:station:USF.COMPS:EGK:1,2008-09-18T03:18:00Z,27.6010,-82.7510,1.0,33.566,1111122 
COMPS,ioos:station:USF.COMPS:EGK:1,2008-09-18T03:24:00Z,27.6010,-82.7510,1.0,32.978,1111122 
COMPS,ioos:station:USF.COMPS:EGK:1,2008-09-18T03:30:00Z,27.6010,-82.7510,1.0,33.336,1111122 
COMPS,ioos:station:USF.COMPS:EGK:1,2008-09-18T03:36:00Z,27.6010,-82.7510,1.0,33.621,1111122 
COMPS,ioos:station:USF.COMPS:EGK:1,2008-09-18T03:42:00Z,27.6010,-82.7510,1.0,33.445,1111122 
COMPS,ioos:station:USF.COMPS:EGK:1,2008-09-18T03:48:00Z,27.6010,-82.7510,1.0,33.628,1111122 
COMPS,ioos:station:USF.COMPS:EGK:1,2008-09-18T03:54:00Z,27.6010,-82.7510,1.0,33.804,1111122 
COMPS,ioos:station:USF.COMPS:EGK:1,2008-09-18T04:00:00Z,27.6010,-82.7510,1.0,33.845,1111122 
COMPS,ioos:station:USF.COMPS:EGK:1,2008-09-18T04:06:00Z,27.6010,-82.7510,1.0,33.954,1111122 
COMPS,ioos:station:USF.COMPS:EGK:1,2008-09-18T04:12:00Z,27.6010,-82.7510,1.0,34.035,1111122 
COMPS,ioos:station:USF.COMPS:EGK:1,2008-09-18T04:18:00Z,27.6010,-82.7510,1.0,34.061,1111122 
COMPS,ioos:station:USF.COMPS:EGK:1,2008-09-18T04:24:00Z,27.6010,-82.7510,1.0,34.0,1111122 
COMPS,ioos:station:USF.COMPS:EGK:1,2008-09-18T04:30:00Z,27.6010,-82.7510,1.0,34.0,1111122 
COMPS,ioos:station:USF.COMPS:EGK:1,2008-09-18T04:36:00Z,27.6010,-82.7510,1.0,34.034,1111122 
COMPS,ioos:station:USF.COMPS:EGK:1,2008-09-18T04:42:00Z,27.6010,-82.7510,1.0,34.081,1111122 
COMPS,ioos:station:USF.COMPS:EGK:1,2008-09-18T04:48:00Z,27.6010,-82.7510,1.0,34.115,1111122 
COMPS,ioos:station:USF.COMPS:EGK:1,2008-09-18T04:54:00Z,27.6010,-82.7510,1.0,34.121,1111122 
COMPS,ioos:station:USF.COMPS:EGK:1,2008-09-18T05:00:00Z,27.6010,-82.7510,1.0,34.108,1111122 
COMPS,ioos:station:USF.COMPS:EGK:1,2008-09-18T05:06:00Z,27.6010,-82.7510,1.0,34.114,1111122 
COMPS,ioos:station:USF.COMPS:EGK:1,2008-09-18T05:12:00Z,27.6010,-82.7510,1.0,34.168,1111122 
COMPS,ioos:station:USF.COMPS:EGK:1,2008-09-18T05:18:00Z,27.6010,-82.7510,1.0,34.187,1111122 
COMPS,ioos:station:USF.COMPS:EGK:1,2008-09-18T05:24:00Z,27.6010,-82.7510,1.0,34.187,1111122 
COMPS,ioos:station:USF.COMPS:EGK:1,2008-09-18T05:30:00Z,27.6010,-82.7510,1.0,34.153,1111122 
COMPS,ioos:station:USF.COMPS:EGK:1,2008-09-18T05:36:00Z,27.6010,-82.7510,1.0,34.107,1111122 
COMPS,ioos:station:USF.COMPS:EGK:1,2008-09-18T05:42:00Z,27.6010,-82.7510,1.0,34.109,1111122 
COMPS,ioos:station:USF.COMPS:EGK:1,2008-09-18T05:48:00Z,27.6010,-82.7510,1.0,34.299,1111122 
COMPS,ioos:station:USF.COMPS:EGK:1,2008-09-18T05:54:00Z,27.6010,-82.7510,1.0,34.305,1111122 
COMPS,ioos:station:USF.COMPS:EGK:1,2008-09-18T06:00:00Z,27.6010,-82.7510,1.0,34.29,1111122 
COMPS,ioos:station:USF.COMPS:EGK:1,2008-09-18T06:06:00Z,27.6010,-82.7510,1.0,33.626,1111122 
COMPS,ioos:station:USF.COMPS:EGK:1,2008-09-18T06:12:00Z,27.6010,-82.7510,1.0,34.271,1111122 
COMPS,ioos:station:USF.COMPS:EGK:1,2008-09-18T06:18:00Z,27.6010,-82.7510,1.0,34.13,1111122 
COMPS,ioos:station:USF.COMPS:EGK:1,2008-09-18T06:24:00Z,27.6010,-82.7510,1.0,33.965,1111122 
COMPS,ioos:station:USF.COMPS:EGK:1,2008-09-18T06:30:00Z,27.6010,-82.7510,1.0,34.046,1111122 
COMPS,ioos:station:USF.COMPS:EGK:1,2008-09-18T06:36:00Z,27.6010,-82.7510,1.0,34.27,1111122 
COMPS,ioos:station:USF.COMPS:EGK:1,2008-09-18T06:42:00Z,27.6010,-82.7510,1.0,34.456,1111122 
COMPS,ioos:station:USF.COMPS:EGK:1,2008-09-18T06:48:00Z,27.6010,-82.7510,1.0,34.42,1111122 
COMPS,ioos:station:USF.COMPS:EGK:1,2008-09-18T06:54:00Z,27.6010,-82.7510,1.0,34.467,1111122 
COMPS,ioos:station:USF.COMPS:EGK:1,2008-09-18T07:00:00Z,27.6010,-82.7510,1.0,34.409,1111122 
COMPS,ioos:station:USF.COMPS:EGK:1,2008-09-18T07:06:00Z,27.6010,-82.7510,1.0,34.339,1111122 
COMPS,ioos:station:USF.COMPS:EGK:1,2008-09-18T07:12:00Z,27.6010,-82.7510,1.0,33.763,1111122 
COMPS,ioos:station:USF.COMPS:EGK:1,2008-09-18T07:18:00Z,27.6010,-82.7510,1.0,34.141,1111122 
COMPS,ioos:station:USF.COMPS:EGK:1,2008-09-18T07:24:00Z,27.6010,-82.7510,1.0,34.017,1111122 
COMPS,ioos:station:USF.COMPS:EGK:1,2008-09-18T07:30:00Z,27.6010,-82.7510,1.0,34.004,1111122 
COMPS,ioos:station:USF.COMPS:EGK:1,2008-09-18T07:36:00Z,27.6010,-82.7510,1.0,33.943,1111122 
COMPS,ioos:station:USF.COMPS:EGK:1,2008-09-18T07:42:00Z,27.6010,-82.7510,1.0,33.963,1111122 
COMPS,ioos:station:USF.COMPS:EGK:1,2008-09-18T07:48:00Z,27.6010,-82.7510,1.0,33.915,1111122 
COMPS,ioos:station:USF.COMPS:EGK:1,2008-09-18T07:54:00Z,27.6010,-82.7510,1.0,33.962,1111122 
COMPS,ioos:station:USF.COMPS:EGK:1,2008-09-18T08:00:00Z,27.6010,-82.7510,1.0,34.063,1111122 
COMPS,ioos:station:USF.COMPS:EGK:1,2008-09-18T08:06:00Z,27.6010,-82.7510,1.0,34.097,1111122 
COMPS,ioos:station:USF.COMPS:EGK:1,2008-09-18T08:12:00Z,27.6010,-82.7510,1.0,33.764,1111122 
COMPS,ioos:station:USF.COMPS:EGK:1,2008-09-18T08:18:00Z,27.6010,-82.7510,1.0,33.58,1111122 
COMPS,ioos:station:USF.COMPS:EGK:1,2008-09-18T08:24:00Z,27.6010,-82.7510,1.0,33.005,1111122 
COMPS,ioos:station:USF.COMPS:EGK:1,2008-09-18T08:30:00Z,27.6010,-82.7510,1.0,33.71,1111122 
COMPS,ioos:station:USF.COMPS:EGK:1,2008-09-18T08:36:00Z,27.6010,-82.7510,1.0,33.902,1111122 
COMPS,ioos:station:USF.COMPS:EGK:1,2008-09-18T08:42:00Z,27.6010,-82.7510,1.0,33.912,1111122 
COMPS,ioos:station:USF.COMPS:EGK:1,2008-09-18T08:48:00Z,27.6010,-82.7510,1.0,33.907,1111122 
COMPS,ioos:station:USF.COMPS:EGK:1,2008-09-18T08:54:00Z,27.6010,-82.7510,1.0,34.01,1111122 
COMPS,ioos:station:USF.COMPS:EGK:1,2008-09-18T09:00:00Z,27.6010,-82.7510,1.0,34.024,1111122 
COMPS,ioos:station:USF.COMPS:EGK:1,2008-09-18T09:06:00Z,27.6010,-82.7510,1.0,34.024,1111122 
COMPS,ioos:station:USF.COMPS:EGK:1,2008-09-18T09:12:00Z,27.6010,-82.7510,1.0,33.369,1111122 
COMPS,ioos:station:USF.COMPS:EGK:1,2008-09-18T09:18:00Z,27.6010,-82.7510,1.0,33.964,1111122 
COMPS,ioos:station:USF.COMPS:EGK:1,2008-09-18T09:24:00Z,27.6010,-82.7510,1.0,34.315,1111122 
COMPS,ioos:station:USF.COMPS:EGK:1,2008-09-18T09:30:00Z,27.6010,-82.7510,1.0,34.441,1111122 
COMPS,ioos:station:USF.COMPS:EGK:1,2008-09-18T09:36:00Z,27.6010,-82.7510,1.0,34.523,1111122 
COMPS,ioos:station:USF.COMPS:EGK:1,2008-09-18T09:42:00Z,27.6010,-82.7510,1.0,34.408,1111122 
COMPS,ioos:station:USF.COMPS:EGK:1,2008-09-18T09:48:00Z,27.6010,-82.7510,1.0,34.353,1111122 
COMPS,ioos:station:USF.COMPS:EGK:1,2008-09-18T09:54:00Z,27.6010,-82.7510,1.0,33.633,1111122 
COMPS,ioos:station:USF.COMPS:EGK:1,2008-09-18T10:00:00Z,27.6010,-82.7510,1.0,33.51,1111122 
COMPS,ioos:station:USF.COMPS:EGK:1,2008-09-18T10:06:00Z,27.6010,-82.7510,1.0,33.633,1111122 
COMPS,ioos:station:USF.COMPS:EGK:1,2008-09-18T10:12:00Z,27.6010,-82.7510,1.0,33.565,1111122 
COMPS,ioos:station:USF.COMPS:EGK:1,2008-09-18T10:18:00Z,27.6010,-82.7510,1.0,32.396,1111122 
COMPS,ioos:station:USF.COMPS:EGK:1,2008-09-18T10:24:00Z,27.6010,-82.7510,1.0,33.518,1111122 
COMPS,ioos:station:USF.COMPS:EGK:1,2008-09-18T10:30:00Z,27.6010,-82.7510,1.0,34.631,1111122 
COMPS,ioos:station:USF.COMPS:EGK:1,2008-09-18T10:36:00Z,27.6010,-82.7510,1.0,34.679,1111122 
COMPS,ioos:station:USF.COMPS:EGK:1,2008-09-18T10:42:00Z,27.6010,-82.7510,1.0,34.665,1111122 
COMPS,ioos:station:USF.COMPS:EGK:1,2008-09-18T10:48:00Z,27.6010,-82.7510,1.0,34.637,1111122 
COMPS,ioos:station:USF.COMPS:EGK:1,2008-09-18T10:54:00Z,27.6010,-82.7510,1.0,34.417,1111122 
COMPS,ioos:station:USF.COMPS:EGK:1,2008-09-18T11:00:00Z,27.6010,-82.7510,1.0,34.672,1111122 
COMPS,ioos:station:USF.COMPS:EGK:1,2008-09-18T11:06:00Z,27.6010,-82.7510,1.0,34.665,1111122 
COMPS,ioos:station:USF.COMPS:EGK:1,2008-09-18T11:12:00Z,27.6010,-82.7510,1.0,34.582,1111122 
COMPS,ioos:station:USF.COMPS:EGK:1,2008-09-18T11:18:00Z,27.6010,-82.7510,1.0,34.306,1111122 
COMPS,ioos:station:USF.COMPS:EGK:1,2008-09-18T11:24:00Z,27.6010,-82.7510,1.0,32.464,1111122 
COMPS,ioos:station:USF.COMPS:EGK:1,2008-09-18T11:30:00Z,27.6010,-82.7510,1.0,32.505,1111122 
COMPS,ioos:station:USF.COMPS:EGK:1,2008-09-18T11:36:00Z,27.6010,-82.7510,1.0,32.485,1111122 
COMPS,ioos:station:USF.COMPS:EGK:1,2008-09-18T11:42:00Z,27.6010,-82.7510,1.0,32.464,1111122 
COMPS,ioos:station:USF.COMPS:EGK:1,2008-09-18T11:48:00Z,27.6010,-82.7510,1.0,32.56,1111122 
COMPS,ioos:station:USF.COMPS:EGK:1,2008-09-18T11:54:00Z,27.6010,-82.7510,1.0,32.546,1111122 
COMPS,ioos:station:USF.COMPS:EGK:1,2008-09-18T12:00:00Z,27.6010,-82.7510,1.0,32.458,1111122 
COMPS,ioos:station:USF.COMPS:EGK:1,2008-09-18T12:06:00Z,27.6010,-82.7510,1.0,32.499,1111122 
COMPS,ioos:station:USF.COMPS:EGK:1,2008-09-18T12:12:00Z,27.6010,-82.7510,1.0,32.458,1111122 
COMPS,ioos:station:USF.COMPS:EGK:1,2008-09-18T12:18:00Z,27.6010,-82.7510,1.0,32.43,1111122 
COMPS,ioos:station:USF.COMPS:EGK:1,2008-09-18T12:24:00Z,27.6010,-82.7510,1.0,32.505,1111122 
COMPS,ioos:station:USF.COMPS:EGK:1,2008-09-18T12:30:00Z,27.6010,-82.7510,1.0,32.587,1111122 
COMPS,ioos:station:USF.COMPS:EGK:1,2008-09-18T12:36:00Z,27.6010,-82.7510,1.0,32.608,1111122 
COMPS,ioos:station:USF.COMPS:EGK:1,2008-09-18T12:42:00Z,27.6010,-82.7510,1.0,32.471,1111122 
COMPS,ioos:station:USF.COMPS:EGK:1,2008-09-18T12:48:00Z,27.6010,-82.7510,1.0,32.717,1111122 
COMPS,ioos:station:USF.COMPS:EGK:1,2008-09-18T12:54:00Z,27.6010,-82.7510,1.0,32.526,1111122 
COMPS,ioos:station:USF.COMPS:EGK:1,2008-09-18T13:00:00Z,27.6010,-82.7510,1.0,32.594,1111122 
COMPS,ioos:station:USF.COMPS:EGK:1,2008-09-18T13:06:00Z,27.6010,-82.7510,1.0,32.628,1111122 
COMPS,ioos:station:USF.COMPS:EGK:1,2008-09-18T13:12:00Z,27.6010,-82.7510,1.0,31.054,1111122 
COMPS,ioos:station:USF.COMPS:EGK:1,2008-09-18T13:18:00Z,27.6010,-82.7510,1.0,30.656,1111122 
COMPS,ioos:station:USF.COMPS:EGK:1,2008-09-18T13:24:00Z,27.6010,-82.7510,1.0,30.8,1111122 
COMPS,ioos:station:USF.COMPS:EGK:1,2008-09-18T13:30:00Z,27.6010,-82.7510,1.0,30.707,1111122 
COMPS,ioos:station:USF.COMPS:EGK:1,2008-09-18T13:36:00Z,27.6010,-82.7510,1.0,30.869,1111122 
COMPS,ioos:station:USF.COMPS:EGK:1,2008-09-18T13:42:00Z,27.6010,-82.7510,1.0,30.864,1111122 
COMPS,ioos:station:USF.COMPS:EGK:1,2008-09-18T13:48:00Z,27.6010,-82.7510,1.0,30.864,1111122 
COMPS,ioos:station:USF.COMPS:EGK:1,2008-09-18T13:54:00Z,27.6010,-82.7510,1.0,30.649,1111122 
COMPS,ioos:station:USF.COMPS:EGK:1,2008-09-18T14:00:00Z,27.6010,-82.7510,1.0,30.488,1111122 
COMPS,ioos:station:USF.COMPS:EGK:1,2008-09-18T14:06:00Z,27.6010,-82.7510,1.0,30.401,1111122 
COMPS,ioos:station:USF.COMPS:EGK:1,2008-09-18T14:12:00Z,27.6010,-82.7510,1.0,30.307,1111122 
COMPS,ioos:station:USF.COMPS:EGK:1,2008-09-18T14:18:00Z,27.6010,-82.7510,1.0,30.301,1111122 
COMPS,ioos:station:USF.COMPS:EGK:1,2008-09-18T14:24:00Z,27.6010,-82.7510,1.0,30.275,1111122 
COMPS,ioos:station:USF.COMPS:EGK:1,2008-09-18T14:30:00Z,27.6010,-82.7510,1.0,30.221,1111122 
COMPS,ioos:station:USF.COMPS:EGK:1,2008-09-18T14:36:00Z,27.6010,-82.7510,1.0,30.175,1111122 
COMPS,ioos:station:USF.COMPS:EGK:1,2008-09-18T14:42:00Z,27.6010,-82.7510,1.0,30.175,1111122 
COMPS,ioos:station:USF.COMPS:EGK:1,2008-09-18T14:48:00Z,27.6010,-82.7510,1.0,30.102,1111122 
COMPS,ioos:station:USF.COMPS:EGK:1,2008-09-18T14:54:00Z,27.6010,-82.7510,1.0,30.183,1111122 
COMPS,ioos:station:USF.COMPS:EGK:1,2008-09-18T15:00:00Z,27.6010,-82.7510,1.0,30.218,1111122 
COMPS,ioos:station:USF.COMPS:EGK:1,2008-09-18T15:06:00Z,27.6010,-82.7510,1.0,30.037,1111122 
COMPS,ioos:station:USF.COMPS:EGK:1,2008-09-18T15:12:00Z,27.6010,-82.7510,1.0,29.64,1111122 
COMPS,ioos:station:USF.COMPS:EGK:1,2008-09-18T15:18:00Z,27.6010,-82.7510,1.0,29.556,1111122 
COMPS,ioos:station:USF.COMPS:EGK:1,2008-09-18T15:24:00Z,27.6010,-82.7510,1.0,29.611,1111122 
COMPS,ioos:station:USF.COMPS:EGK:1,2008-09-18T15:30:00Z,27.6010,-82.7510,1.0,29.605,1111122 
COMPS,ioos:station:USF.COMPS:EGK:1,2008-09-18T15:36:00Z,27.6010,-82.7510,1.0,29.487,1111122 
COMPS,ioos:station:USF.COMPS:EGK:1,2008-09-18T15:42:00Z,27.6010,-82.7510,1.0,29.547,1111122 
COMPS,ioos:station:USF.COMPS:EGK:1,2008-09-18T15:48:00Z,27.6010,-82.7510,1.0,29.508,1111122 
COMPS,ioos:station:USF.COMPS:EGK:1,2008-09-18T15:54:00Z,27.6010,-82.7510,1.0,29.475,1111122 
COMPS,ioos:station:USF.COMPS:EGK:1,2008-09-18T16:00:00Z,27.6010,-82.7510,1.0,29.516,1111122 
COMPS,ioos:station:USF.COMPS:EGK:1,2008-09-18T16:06:00Z,27.6010,-82.7510,1.0,29.498,1111122 
COMPS,ioos:station:USF.COMPS:EGK:1,2008-09-18T16:12:00Z,27.6010,-82.7510,1.0,29.473,1111122 
COMPS,ioos:station:USF.COMPS:EGK:1,2008-09-18T16:18:00Z,27.6010,-82.7510,1.0,29.448,1111122 
COMPS,ioos:station:USF.COMPS:EGK:1,2008-09-18T16:24:00Z,27.6010,-82.7510,1.0,29.408,1111122 
COMPS,ioos:station:USF.COMPS:EGK:1,2008-09-18T16:30:00Z,27.6010,-82.7510,1.0,29.462,1111122 
COMPS,ioos:station:USF.COMPS:EGK:1,2008-09-18T16:36:00Z,27.6010,-82.7510,1.0,29.574,1111122 
COMPS,ioos:station:USF.COMPS:EGK:1,2008-09-18T16:42:00Z,27.6010,-82.7510,1.0,29.481,1111122 
COMPS,ioos:station:USF.COMPS:EGK:1,2008-09-18T16:48:00Z,27.6010,-82.7510,1.0,29.767,1111122 
COMPS,ioos:station:USF.COMPS:EGK:1,2008-09-18T16:54:00Z,27.6010,-82.7510,1.0,30.597,1111122 
COMPS,ioos:station:USF.COMPS:EGK:1,2008-09-18T17:00:00Z,27.6010,-82.7510,1.0,29.8,1111122 
COMPS,ioos:station:USF.COMPS:EGK:1,2008-09-18T17:06:00Z,27.6010,-82.7510,1.0,29.635,1111122 
COMPS,ioos:station:USF.COMPS:EGK:1,2008-09-18T17:12:00Z,27.6010,-82.7510,1.0,29.584,1111122 
COMPS,ioos:station:USF.COMPS:EGK:1,2008-09-18T17:18:00Z,27.6010,-82.7510,1.0,29.558,1111122 
COMPS,ioos:station:USF.COMPS:EGK:1,2008-09-18T17:24:00Z,27.6010,-82.7510,1.0,29.643,1111122 
COMPS,ioos:station:USF.COMPS:EGK:1,2008-09-18T17:30:00Z,27.6010,-82.7510,1.0,29.535,1111122 
COMPS,ioos:station:USF.COMPS:EGK:1,2008-09-18T17:36:00Z,27.6010,-82.7510,1.0,30.018,1111122 
COMPS,ioos:station:USF.COMPS:EGK:1,2008-09-18T17:42:00Z,27.6010,-82.7510,1.0,30.483,1111122 
COMPS,ioos:station:USF.COMPS:EGK:1,2008-09-18T17:48:00Z,27.6010,-82.7510,1.0,30.164,1111122 
COMPS,ioos:station:USF.COMPS:EGK:1,2008-09-18T17:54:00Z,27.6010,-82.7510,1.0,30.463,1111122 
COMPS,ioos:station:USF.COMPS:EGK:1,2008-09-18T19:00:00Z,27.6010,-82.7510,1.0,34.089,1111122 
COMPS,ioos:station:USF.COMPS:EGK:1,2008-09-18T19:06:00Z,27.6010,-82.7510,1.0,34.149,1111122 
COMPS,ioos:station:USF.COMPS:EGK:1,2008-09-18T19:12:00Z,27.6010,-82.7510,1.0,33.083,1111122 
COMPS,ioos:station:USF.COMPS:EGK:1,2008-09-18T19:18:00Z,27.6010,-82.7510,1.0,30.33,1111122 
COMPS,ioos:station:USF.COMPS:EGK:1,2008-09-18T19:24:00Z,27.6010,-82.7510,1.0,31.509,1111122 
COMPS,ioos:station:USF.COMPS:EGK:1,2008-09-18T19:30:00Z,27.6010,-82.7510,1.0,32.064,1111122 
COMPS,ioos:station:USF.COMPS:EGK:1,2008-09-18T19:36:00Z,27.6010,-82.7510,1.0,33.91,1111122 
COMPS,ioos:station:USF.COMPS:EGK:1,2008-09-18T19:42:00Z,27.6010,-82.7510,1.0,33.31,1111122 
COMPS,ioos:station:USF.COMPS:EGK:1,2008-09-18T19:48:00Z,27.6010,-82.7510,1.0,32.813,1111122 
COMPS,ioos:station:USF.COMPS:EGK:1,2008-09-18T19:54:00Z,27.6010,-82.7510,1.0,33.712,1111122 
COMPS,ioos:station:USF.COMPS:EGK:1,2008-09-18T20:00:00Z,27.6010,-82.7510,1.0,34.27,1111122 
COMPS,ioos:station:USF.COMPS:EGK:1,2008-09-18T20:06:00Z,27.6010,-82.7510,1.0,34.228,1111122 
COMPS,ioos:station:USF.COMPS:EGK:1,2008-09-18T20:12:00Z,27.6010,-82.7510,1.0,34.229,1111122 
COMPS,ioos:station:USF.COMPS:EGK:1,2008-09-18T20:18:00Z,27.6010,-82.7510,1.0,34.244,1111122 
COMPS,ioos:station:USF.COMPS:EGK:1,2008-09-18T20:24:00Z,27.6010,-82.7510,1.0,34.244,1111122 
COMPS,ioos:station:USF.COMPS:EGK:1,2008-09-18T20:30:00Z,27.6010,-82.7510,1.0,34.23,1111122 
COMPS,ioos:station:USF.COMPS:EGK:1,2008-09-18T20:36:00Z,27.6010,-82.7510,1.0,34.17,1111122 
COMPS,ioos:station:USF.COMPS:EGK:1,2008-09-18T20:42:00Z,27.6010,-82.7510,1.0,34.156,1111122 
COMPS,ioos:station:USF.COMPS:EGK:1,2008-09-18T20:48:00Z,27.6010,-82.7510,1.0,34.25,1111122 
COMPS,ioos:station:USF.COMPS:EGK:1,2008-09-18T20:54:00Z,27.6010,-82.7510,1.0,34.276,1111122 
COMPS,ioos:station:USF.COMPS:EGK:1,2008-09-18T21:00:00Z,27.6010,-82.7510,1.0,34.275,1111122 
COMPS,ioos:station:USF.COMPS:EGK:1,2008-09-18T21:06:00Z,27.6010,-82.7510,1.0,34.026,1111122 
COMPS,ioos:station:USF.COMPS:EGK:1,2008-09-18T21:12:00Z,27.6010,-82.7510,1.0,34.0,1111122 
COMPS,ioos:station:USF.COMPS:EGK:1,2008-09-18T21:18:00Z,27.6010,-82.7510,1.0,34.203,1111122 
COMPS,ioos:station:USF.COMPS:EGK:1,2008-09-18T21:24:00Z,27.6010,-82.7510,1.0,34.25,1111122 
COMPS,ioos:station:USF.COMPS:EGK:1,2008-09-18T21:30:00Z,27.6010,-82.7510,1.0,34.202,1111122 
COMPS,ioos:station:USF.COMPS:EGK:1,2008-09-18T21:36:00Z,27.6010,-82.7510,1.0,34.176,1111122 
COMPS,ioos:station:USF.COMPS:EGK:1,2008-09-18T21:42:00Z,27.6010,-82.7510,1.0,34.196,1111122 
COMPS,ioos:station:USF.COMPS:EGK:1,2008-09-18T21:48:00Z,27.6010,-82.7510,1.0,34.182,1111122 
COMPS,ioos:station:USF.COMPS:EGK:1,2008-09-18T21:54:00Z,27.6010,-82.7510,1.0,34.209,1111122 
COMPS,ioos:station:USF.COMPS:EGK:1,2008-09-18T22:00:00Z,27.6010,-82.7510,1.0,34.108,1111122 
COMPS,ioos:station:USF.COMPS:EGK:1,2008-09-18T22:06:00Z,27.6010,-82.7510,1.0,34.17,1111122 
COMPS,ioos:station:USF.COMPS:EGK:1,2008-09-18T22:12:00Z,27.6010,-82.7510,1.0,34.109,1111122 
COMPS,ioos:station:USF.COMPS:EGK:1,2008-09-18T22:18:00Z,27.6010,-82.7510,1.0,34.097,1111122 
COMPS,ioos:station:USF.COMPS:EGK:1,2008-09-18T22:24:00Z,27.6010,-82.7510,1.0,34.091,1111122 
COMPS,ioos:station:USF.COMPS:EGK:1,2008-09-18T22:30:00Z,27.6010,-82.7510,1.0,34.118,1111122 
COMPS,ioos:station:USF.COMPS:EGK:1,2008-09-18T22:36:00Z,27.6010,-82.7510,1.0,33.666,1111122 
COMPS,ioos:station:USF.COMPS:EGK:1,2008-09-18T22:42:00Z,27.6010,-82.7510,1.0,33.767,1111122 
COMPS,ioos:station:USF.COMPS:EGK:1,2008-09-18T22:48:00Z,27.6010,-82.7510,1.0,33.997,1111122 
COMPS,ioos:station:USF.COMPS:EGK:1,2008-09-18T22:54:00Z,27.6010,-82.7510,1.0,33.977,1111122 
COMPS,ioos:station:USF.COMPS:EGK:1,2008-09-18T23:00:00Z,27.6010,-82.7510,1.0,33.829,1111122 
COMPS,ioos:station:USF.COMPS:EGK:1,2008-09-18T23:06:00Z,27.6010,-82.7510,1.0,33.553,1111122 
COMPS,ioos:station:USF.COMPS:EGK:1,2008-09-18T23:12:00Z,27.6010,-82.7510,1.0,33.922,1111122 
COMPS,ioos:station:USF.COMPS:EGK:1,2008-09-18T23:18:00Z,27.6010,-82.7510,1.0,34.01,1111122 
COMPS,ioos:station:USF.COMPS:EGK:1,2008-09-18T23:24:00Z,27.6010,-82.7510,1.0,33.497,1111122 
COMPS,ioos:station:USF.COMPS:EGK:1,2008-09-18T23:30:00Z,27.6010,-82.7510,1.0,32.866,1111122 
COMPS,ioos:station:USF.COMPS:EGK:1,2008-09-18T23:36:00Z,27.6010,-82.7510,1.0,34.047,1111122 
COMPS,ioos:station:USF.COMPS:EGK:1,2008-09-18T23:42:00Z,27.6010,-82.7510,1.0,34.082,1111122 
COMPS,ioos:station:USF.COMPS:EGK:1,2008-09-18T23:48:00Z,27.6010,-82.7510,1.0,33.337,1111122 
COMPS,ioos:station:USF.COMPS:EGK:1,2008-09-18T23:54:00Z,27.6010,-82.7510,1.0,33.6,1111122 
COMPS,ioos:station:USF.COMPS:EGK:1,2008-09-19T00:00:00Z,27.6010,-82.7510,1.0,34.032,1111122 
COMPS,ioos:station:USF.COMPS:EGK:1,2008-09-19T00:06:00Z,27.6010,-82.7510,1.0,33.649,1111122 
COMPS,ioos:station:USF.COMPS:EGK:1,2008-09-19T00:12:00Z,27.6010,-82.7510,1.0,34.055,1111122 
COMPS,ioos:station:USF.COMPS:EGK:1,2008-09-19T00:18:00Z,27.6010,-82.7510,1.0,33.954,1111122 
COMPS,ioos:station:USF.COMPS:EGK:1,2008-09-19T00:24:00Z,27.6010,-82.7510,1.0,32.445,1111122 
COMPS,ioos:station:USF.COMPS:EGK:1,2008-09-19T00:30:00Z,27.6010,-82.7510,1.0,32.378,1111122 
COMPS,ioos:station:USF.COMPS:EGK:1,2008-09-19T00:36:00Z,27.6010,-82.7510,1.0,32.364,1111122 
COMPS,ioos:station:USF.COMPS:EGK:1,2008-09-19T00:42:00Z,27.6010,-82.7510,1.0,32.378,1111122 
COMPS,ioos:station:USF.COMPS:EGK:1,2008-09-19T00:48:00Z,27.6010,-82.7510,1.0,32.411,1111122 
COMPS,ioos:station:USF.COMPS:EGK:1,2008-09-19T00:54:00Z,27.6010,-82.7510,1.0,32.378,1111122 
COMPS,ioos:station:USF.COMPS:EGK:1,2008-09-19T01:00:00Z,27.6010,-82.7510,1.0,32.432,1111122 
COMPS,ioos:station:USF.COMPS:EGK:1,2008-09-19T01:06:00Z,27.6010,-82.7510,1.0,32.411,1111122 
COMPS,ioos:station:USF.COMPS:EGK:1,2008-09-19T01:12:00Z,27.6010,-82.7510,1.0,31.747,1111122 
COMPS,ioos:station:USF.COMPS:EGK:1,2008-09-19T01:18:00Z,27.6010,-82.7510,1.0,32.338,1111122 
COMPS,ioos:station:USF.COMPS:EGK:1,2008-09-19T01:24:00Z,27.6010,-82.7510,1.0,32.304,1111122 
COMPS,ioos:station:USF.COMPS:EGK:1,2008-09-19T01:30:00Z,27.6010,-82.7510,1.0,32.163,1111122 
COMPS,ioos:station:USF.COMPS:EGK:1,2008-09-19T01:36:00Z,27.6010,-82.7510,1.0,31.753,1111122 
COMPS,ioos:station:USF.COMPS:EGK:1,2008-09-19T01:42:00Z,27.6010,-82.7510,1.0,31.659,1111122 
COMPS,ioos:station:USF.COMPS:EGK:1,2008-09-19T01:48:00Z,27.6010,-82.7510,1.0,31.639,1111122 
COMPS,ioos:station:USF.COMPS:EGK:1,2008-09-19T01:54:00Z,27.6010,-82.7510,1.0,31.853,1111122 
COMPS,ioos:station:USF.COMPS:EGK:1,2008-09-19T02:00:00Z,27.6010,-82.7510,1.0,31.739,1111122 
COMPS,ioos:station:USF.COMPS:EGK:1,2008-09-19T02:06:00Z,27.6010,-82.7510,1.0,32.978,1111122 
COMPS,ioos:station:USF.COMPS:EGK:1,2008-09-19T02:12:00Z,27.6010,-82.7510,1.0,34.097,1111122 
COMPS,ioos:station:USF.COMPS:EGK:1,2008-09-19T02:18:00Z,27.6010,-82.7510,1.0,34.083,1111122 
COMPS,ioos:station:USF.COMPS:EGK:1,2008-09-19T02:24:00Z,27.6010,-82.7510,1.0,34.125,1111122 
COMPS,ioos:station:USF.COMPS:EGK:1,2008-09-19T02:30:00Z,27.6010,-82.7510,1.0,34.207,1111122 
COMPS,ioos:station:USF.COMPS:EGK:1,2008-09-19T02:36:00Z,27.6010,-82.7510,1.0,34.017,1111122 
COMPS,ioos:station:USF.COMPS:EGK:1,2008-09-19T02:42:00Z,27.6010,-82.7510,1.0,32.492,1111122 
COMPS,ioos:station:USF.COMPS:EGK:1,2008-09-19T02:48:00Z,27.6010,-82.7510,1.0,32.58,1111122 
COMPS,ioos:station:USF.COMPS:EGK:1,2008-09-19T02:54:00Z,27.6010,-82.7510,1.0,32.519,1111122 
COMPS,ioos:station:USF.COMPS:EGK:1,2008-09-19T03:00:00Z,27.6010,-82.7510,1.0,32.526,1111122 
COMPS,ioos:station:USF.COMPS:EGK:1,2008-09-19T03:06:00Z,27.6010,-82.7510,1.0,32.56,1111122 
COMPS,ioos:station:USF.COMPS:EGK:1,2008-09-19T03:12:00Z,27.6010,-82.7510,1.0,32.986,1111122 
COMPS,ioos:station:USF.COMPS:EGK:1,2008-09-19T03:18:00Z,27.6010,-82.7510,1.0,32.539,1111122 
COMPS,ioos:station:USF.COMPS:EGK:1,2008-09-19T03:24:00Z,27.6010,-82.7510,1.0,33.271,1111122 
COMPS,ioos:station:USF.COMPS:EGK:1,2008-09-19T03:30:00Z,27.6010,-82.7510,1.0,34.339,1111122 
COMPS,ioos:station:USF.COMPS:EGK:1,2008-09-19T03:36:00Z,27.6010,-82.7510,1.0,34.326,1111122 